| time (UTC) | temp C | wind direction | speed KPH | gust KPH | rain 1hr cm | rain 24hr cm | rain mn cm | humidity % | barometer mb |
| 20260506184544 | 12 | 334 | 16.1 | 20.9 | 0.00 | 0.00 | 0.00 | 80 | |
| 20260506183527 | 12 | 40 | 16.1 | 24.1 | 0.00 | 0.00 | 0.00 | 79 | |
| 20260506182541 | 12 | 9 | 8.0 | 20.9 | 0.00 | 0.00 | 0.00 | 79 | |
| 20260506181523 | 12 | 5 | 9.7 | 22.5 | 0.00 | 0.00 | 0.00 | 78 | |
| 20260506180526 | 12 | 355 | 16.1 | 24.1 | 0.00 | 0.00 | 0.00 | 78 | |
| 20260506175535 | 12 | 360 | 14.5 | 24.1 | 0.00 | 0.00 | 0.00 | 79 | |
| 20260506174550 | 12 | 9 | 12.9 | 22.5 | 0.00 | 0.00 | 0.00 | 79 | |
| 20260506173533 | 12 | 10 | 11.3 | 24.1 | 0.00 | 0.00 | 0.00 | 78 | |
| 20260506172537 | 12 | 339 | 14.5 | 22.5 | 0.00 | 0.00 | 0.00 | 78 | |
| 20260506171550 | 12 | 351 | 14.5 | 24.1 | 0.00 | 0.00 | 0.00 | 77 | |
| 20260506170542 | 12 | 5 | 16.1 | 29.0 | 0.00 | 0.00 | 0.00 | 77 | |
| 20260506165524 | 12 | 13 | 12.9 | 29.0 | 0.00 | 0.00 | 0.00 | 77 | |
| 20260506164533 | 12 | 360 | 12.9 | 24.1 | 0.00 | 0.00 | 0.00 | 76 | |
| 20260506163536 | 13 | 355 | 17.7 | 30.6 | 0.00 | 0.00 | 0.00 | 75 | |
| 20260506162529 | 13 | 355 | 20.9 | 29.0 | 0.00 | 0.00 | 0.00 | 74 | |
| 20260506161533 | 13 | 350 | 17.7 | 32.2 | 0.00 | 0.00 | 0.00 | 72 | |
| 20260506160546 | 14 | 355 | 17.7 | 25.7 | 0.00 | 0.00 | 0.00 | 73 | |
| 20260506155528 | 14 | 355 | 16.1 | 33.8 | 0.00 | 0.00 | 0.00 | 73 | |
| 20260506154541 | 14 | 350 | 14.5 | 30.6 | 0.00 | 0.00 | 0.00 | 74 | |
| 20260506153526 | 13 | 5 | 20.9 | 29.0 | 0.00 | 0.00 | 0.00 | 75 | |
| 20260506152536 | 13 | 5 | 19.3 | 25.7 | 0.00 | 0.00 | 0.00 | 74 | |
| 20260506151539 | 14 | 18 | 19.3 | 29.0 | 0.00 | 0.00 | 0.00 | 75 | |
| 20260506150533 | 14 | 360 | 19.3 | 30.6 | 0.00 | 0.00 | 0.00 | 75 | |
| 20260506145606 | 14 | 15 | 19.3 | 32.2 | 0.00 | 0.00 | 0.00 | 73 | |
| 20260506144529 | 14 | 355 | 19.3 | 30.6 | 0.00 | 0.00 | 0.00 | 74 | |
| 20260506143544 | 14 | 15 | 14.5 | 25.7 | 0.00 | 0.00 | 0.00 | 75 | |
| 20260506142526 | 13 | 5 | 14.5 | 29.0 | 0.00 | 0.00 | 0.00 | 75 | |
| 20260506141556 | 13 | 9 | 16.1 | 29.0 | 0.00 | 0.00 | 0.00 | 74 | |
| 20260506140608 | 13 | 17 | 17.7 | 29.0 | 0.00 | 0.00 | 0.00 | 73 | |
| 20260506135550 | 14 | 5 | 19.3 | 35.4 | 0.00 | 0.00 | 0.00 | 73 | |
| 20260506134543 | 14 | 355 | 16.1 | 29.0 | 0.00 | 0.00 | 0.00 | 73 | |
| 20260506133527 | 14 | 30 | 14.5 | 32.2 | 0.00 | 0.00 | 0.00 | 73 | |
| 20260506132538 | 14 | 355 | 22.5 | 30.6 | 0.00 | 0.00 | 0.00 | 73 | |
| 20260506131536 | 14 | 5 | 19.3 | 33.8 | 0.00 | 0.00 | 0.00 | 73 | |
| 20260506130546 | 13 | 34 | 19.3 | 30.6 | 0.00 | 0.00 | 0.00 | 73 | |
| 20260506125524 | 13 | 5 | 16.1 | 25.7 | 0.00 | 0.00 | 0.00 | 75 | |
| 20260506124538 | 13 | 16 | 19.3 | 32.2 | 0.00 | 0.00 | 0.00 | 76 | |
| 20260506123611 | 13 | 355 | 20.9 | 30.6 | 0.00 | 0.00 | 0.00 | 77 | |
| 20260506122533 | 13 | 325 | 11.3 | 30.6 | 0.00 | 0.00 | 0.00 | 78 | |
| 20260506121549 | 13 | 351 | 17.7 | 29.0 | 0.00 | 0.00 | 0.00 | 79 | |
| 20260506120531 | 13 | 9 | 17.7 | 29.0 | 0.00 | 0.00 | 0.00 | 79 | |
| 20260506115600 | 13 | 360 | 14.5 | 24.1 | 0.00 | 0.00 | 0.00 | 79 | |
| 20260506114542 | 12 | 355 | 17.7 | 30.6 | 0.00 | 0.00 | 0.00 | 79 | |
| 20260506113535 | 12 | 317 | 17.7 | 25.7 | 0.00 | 0.00 | 0.00 | 79 | |
| 20260506112550 | 13 | 17 | 20.9 | 32.2 | 0.00 | 0.00 | 0.00 | 80 | |
| 20260506111552 | 12 | 333 | 20.9 | 32.2 | 0.00 | 0.00 | 0.00 | 80 | |
| 20260506110545 | 12 | 13 | 17.7 | 29.0 | 0.00 | 0.00 | 0.00 | 79 | |
| 20260506105524 | 12 | 18 | 16.1 | 29.0 | 0.00 | 0.00 | 0.00 | 81 | |
| 20260506104557 | 12 | 17 | 22.5 | 32.2 | 0.00 | 0.00 | 0.00 | 81 | |
| 20260506103539 | 12 | 5 | 20.9 | 29.0 | 0.00 | 0.00 | 0.00 | 82 | |
| 20260506102532 | 11 | 17 | 19.3 | 29.0 | 0.00 | 0.00 | 0.00 | 83 | |
| 20260506101537 | 11 | 18 | 14.5 | 30.6 | 0.00 | 0.00 | 0.00 | 83 | |
| 20260506100550 | 11 | 348 | 17.7 | 29.0 | 0.00 | 0.00 | 0.00 | 84 | |
| 20260506095532 | 11 | 355 | 16.1 | 25.7 | 0.00 | 0.00 | 0.00 | 85 | |
| 20260506094522 | 11 | 355 | 16.1 | 24.1 | 0.00 | 0.00 | 0.00 | 85 | |
| 20260506093527 | 11 | 28 | 17.7 | 30.6 | 0.00 | 0.00 | 0.00 | 83 | |
| 20260506092539 | 11 | 22 | 17.7 | 30.6 | 0.00 | 0.00 | 0.00 | 83 | |
| 20260506091524 | 11 | 42 | 17.7 | 29.0 | 0.00 | 0.00 | 0.00 | 81 | |
| 20260506090537 | 11 | 5 | 22.5 | 30.6 | 0.00 | 0.00 | 0.00 | 81 | |
| 20260506085541 | 11 | 34 | 17.7 | 32.2 | 0.00 | 0.00 | 0.00 | 80 | |
| 20260506084534 | 11 | 9 | 12.9 | 24.1 | 0.00 | 0.00 | 0.00 | 82 | |
| 20260506083539 | 11 | 13 | 17.7 | 32.2 | 0.00 | 0.00 | 0.00 | 80 | |
| 20260506082548 | 11 | 28 | 17.7 | 25.7 | 0.00 | 0.00 | 0.00 | 81 | |
| 20260506081532 | 11 | 355 | 17.7 | 32.2 | 0.00 | 0.00 | 0.00 | 80 | |
| 20260506080544 | 11 | 5 | 16.1 | 30.6 | 0.00 | 0.00 | 0.00 | 81 | |
| 20260506072533 | 11 | 28 | 20.9 | 33.8 | 0.00 | 0.00 | 0.00 | 82 | |
| 20260506071602 | 11 | 13 | 19.3 | 30.6 | 0.00 | 0.00 | 0.00 | 81 | |
| 20260506070524 | 11 | 5 | 17.7 | 30.6 | 0.00 | 0.00 | 0.00 | 82 | |
| 20260506061524 | 10 | 5 | 17.7 | 25.7 | 0.00 | 0.00 | 0.00 | 85 | |
| 20260506060532 | 10 | 360 | 16.1 | 22.5 | 0.00 | 0.00 | 0.00 | 86 | |
| 20260506050540 | 8 | 5 | 12.9 | 19.3 | 0.00 | 0.00 | 0.00 | 86 | |
| 20260506044532 | 8 | 337 | 11.3 | 17.7 | 0.00 | 0.00 | 0.00 | 87 | |
| 20260506043606 | 8 | 360 | 11.3 | 16.1 | 0.00 | 0.00 | 0.00 | 87 | |
| 20260506042528 | 8 | 10 | 9.7 | 16.1 | 0.00 | 0.00 | 0.00 | 87 | |
| 20260506041531 | 8 | 5 | 9.7 | 12.9 | 0.00 | 0.00 | 0.00 | 86 | |
| 20260506040525 | 8 | 5 | 9.7 | 12.9 | 0.00 | 0.00 | 0.00 | 86 | |
| 20260506035558 | 8 | 5 | 9.7 | 14.5 | 0.00 | 0.00 | 0.00 | 86 | |
| 20260506034522 | 8 | 26 | 9.7 | 19.3 | 0.00 | 0.00 | 0.00 | 86 | |
| 20260506033523 | 8 | 5 | 9.7 | 14.5 | 0.00 | 0.00 | 0.00 | 86 | |
| 20260506032535 | 8 | 18 | 12.9 | 16.1 | 0.00 | 0.00 | 0.00 | 86 | |
| 20260506031548 | 8 | 19 | 9.7 | 14.5 | 0.00 | 0.00 | 0.00 | 86 | |
| 20260506030532 | 8 | 25 | 11.3 | 19.3 | 0.00 | 0.00 | 0.00 | 86 | |
| 20260506025545 | 8 | 17 | 11.3 | 19.3 | 0.00 | 0.00 | 0.00 | 86 | |
| 20260506024528 | 8 | 9 | 9.7 | 19.3 | 0.00 | 0.00 | 0.00 | 86 | |
| 20260506023532 | 8 | 10 | 11.3 | 16.1 | 0.00 | 0.00 | 0.00 | 86 | |
| 20260506022526 | 8 | 15 | 11.3 | 17.7 | 0.00 | 0.00 | 0.00 | 86 | |
| 20260506021525 | 8 | 17 | 11.3 | 19.3 | 0.00 | 0.00 | 0.00 | 86 | |
| 20260506020559 | 8 | 20 | 11.3 | 17.7 | 0.00 | 0.00 | 0.00 | 87 | |
| 20260506015522 | 8 | 12 | 11.3 | 19.3 | 0.00 | 0.00 | 0.00 | 87 | |
| 20260506014556 | 8 | 17 | 11.3 | 19.3 | 0.00 | 0.00 | 0.00 | 87 | |
| 20260506013527 | 8 | 23 | 11.3 | 17.7 | 0.00 | 0.00 | 0.00 | 87 | |
| 20260506012531 | 8 | 15 | 9.7 | 17.7 | 0.00 | 0.00 | 0.00 | 87 | |
| 20260506011544 | 8 | 12 | 12.9 | 19.3 | 0.00 | 0.00 | 0.00 | 87 | |
| 20260506010523 | 8 | 18 | 11.3 | 17.7 | 0.00 | 0.00 | 0.00 | 87 | |
| 20260506005537 | 8 | 19 | 11.3 | 16.1 | 0.00 | 0.00 | 0.00 | 87 | |
| 20260506004541 | 8 | 22 | 12.9 | 17.7 | 0.00 | 0.00 | 0.00 | 86 | |
| 20260506003524 | 8 | 20 | 12.9 | 17.7 | 0.00 | 0.00 | 0.00 | 86 | |
| 20260506002537 | 8 | 13 | 12.9 | 17.7 | 0.00 | 0.00 | 0.00 | 86 | |
| 20260506001550 | 8 | 15 | 11.3 | 19.3 | 0.00 | 0.00 | 0.00 | 86 | |
| 20260506000534 | 9 | 360 | 12.9 | 17.7 | 0.00 | 0.00 | 0.00 | 86 | |
| 20260505235538 | 9 | 19 | 12.9 | 19.3 | 0.00 | 0.00 | 0.00 | 86 | |
| 20260505234547 | 9 | 22 | 14.5 | 20.9 | 0.00 | 0.00 | 0.00 | 86 | |
| 20260505233539 | 9 | 39 | 14.5 | 20.9 | 0.00 | 0.00 | 0.00 | 86 | |
| 20260505232523 | 9 | 13 | 12.9 | 19.3 | 0.00 | 0.00 | 0.00 | 87 | |
| 20260505231557 | 9 | 24 | 11.3 | 20.9 | 0.00 | 0.00 | 0.00 | 87 | |
| 20260505230540 | 9 | 5 | 12.9 | 19.3 | 0.00 | 0.00 | 0.00 | 87 | |
| 20260505225534 | 9 | 12 | 11.3 | 19.3 | 0.00 | 0.00 | 0.00 | 87 | |
| 20260505224538 | 9 | 17 | 12.9 | 19.3 | 0.00 | 0.00 | 0.00 | 87 | |
| 20260505223546 | 9 | 23 | 11.3 | 17.7 | 0.00 | 0.00 | 0.00 | 86 | |
| 20260505222530 | 10 | 22 | 12.9 | 22.5 | 0.00 | 0.00 | 0.00 | 86 | |
| 20260505221543 | 10 | 10 | 11.3 | 19.3 | 0.00 | 0.00 | 0.00 | 86 | |
| 20260505220528 | 10 | 24 | 12.9 | 20.9 | 0.00 | 0.00 | 0.00 | 86 | |
| 20260505215531 | 10 | 23 | 14.5 | 20.9 | 0.00 | 0.00 | 0.00 | 85 | |
| 20260505214524 | 10 | 17 | 12.9 | 20.9 | 0.00 | 0.00 | 0.00 | 85 | |
| 20260505213557 | 10 | 5 | 11.3 | 22.5 | 0.00 | 0.00 | 0.00 | 85 | |
| 20260505212536 | 10 | 28 | 12.9 | 20.9 | 0.00 | 0.00 | 0.00 | 85 | |
| 20260505211530 | 10 | 24 | 14.5 | 25.7 | 0.00 | 0.00 | 0.00 | 85 | |
| 20260505210535 | 10 | 36 | 16.1 | 24.1 | 0.00 | 0.00 | 0.00 | 84 | |
| 20260505205549 | 10 | 22 | 14.5 | 24.1 | 0.00 | 0.00 | 0.00 | 85 | |
| 20260505204533 | 10 | 35 | 16.1 | 29.0 | 0.00 | 0.00 | 0.00 | 85 | |
| 20260505203547 | 10 | 18 | 14.5 | 20.9 | 0.00 | 0.00 | 0.00 | 85 | |
| 20260505202551 | 10 | 5 | 16.1 | 24.1 | 0.00 | 0.00 | 0.00 | 84 | |
| 20260505201543 | 10 | 18 | 17.7 | 30.6 | 0.00 | 0.00 | 0.00 | 85 | |
| 20260505200542 | 10 | 28 | 17.7 | 29.0 | 0.00 | 0.00 | 0.00 | 84 | |
| 20260505195535 | 11 | 5 | 12.9 | 24.1 | 0.00 | 0.00 | 0.00 | 84 | |
| 20260505194539 | 11 | 9 | 12.9 | 25.7 | 0.00 | 0.00 | 0.00 | 84 | |
| 20260505193522 | 11 | 9 | 14.5 | 25.7 | 0.00 | 0.00 | 0.00 | 83 | |
| 20260505192555 | 11 | 22 | 14.5 | 29.0 | 0.00 | 0.00 | 0.00 | 83 | |
| 20260505191547 | 11 | 14 | 16.1 | 29.0 | 0.00 | 0.00 | 0.00 | 83 | |
| 20260505190539 | 11 | 9 | 16.1 | 25.7 | 0.00 | 0.00 | 0.00 | 82 | |
| 20260505185534 | 11 | 15 | 17.7 | 30.6 | 0.00 | 0.00 | 0.00 | 82 |